This is the latest recevied weather packets stored in our database for station/object W4JCW. If no packets are shown the sender has not sent any weather packets the latest 10 day(s).
| Time | Temp. | Humidity | Pressure | Rain* | Wind** | Luminosity | Snow |
|---|---|---|---|---|---|---|---|
| 1777814606 | 13.89° C | 57% | 1018.5 hPa | 0 mm | - | 521 W/m² | - |
| 1777814304 | 13.33° C | 58% | 1018.5 hPa | 0.51 mm | - | 544 W/m² | - |
| 1777814000 | 12.78° C | 60% | 1018.5 hPa | 0.51 mm | - | 349 W/m² | - |
| 1777813697 | 12.78° C | 62% | 1018.6 hPa | 0 mm | - | 165 W/m² | - |
| 1777813395 | 12.22° C | 64% | 1018.6 hPa | 0 mm | - | 140 W/m² | - |
| 1777813092 | 11.67° C | 66% | 1018.4 hPa | 0 mm | - | 66 W/m² | - |
| 1777812790 | 11.67° C | 67% | 1018.6 hPa | 0 mm | - | 109 W/m² | - |
| 1777812486 | 11.67° C | 68% | 1018.6 hPa | 0 mm | - | 52 W/m² | - |
| 1777812184 | 11.11° C | 70% | 1018.4 hPa | 0 mm | - | 164 W/m² | - |
| 1777811882 | 10.56° C | 75% | 1018.6 hPa | 0 mm | - | 285 W/m² | - |
| 1777811580 | 10° C | 77% | 1018.7 hPa | 0 mm | - | 229 W/m² | - |
| 1777811275 | 8.89° C | 84% | 1018.4 hPa | 0 mm | - | 186 W/m² | - |
| 1777810973 | 8.33° C | 91% | 1018.7 hPa | 0 mm | - | 66 W/m² | - |
| 1777810669 | 7.78° C | 96% | 1018.6 hPa | 0 mm | - | 65 W/m² | - |
| 1777810367 | 7.78° C | 98% | 1018.4 hPa | 0 mm | - | 41 W/m² | - |
| 1777810062 | 7.22° C | 98% | 1018.2 hPa | 0 mm | - | 40 W/m² | - |
| 1777809760 | 7.22° C | 98% | 1018.3 hPa | 0 mm | - | 62 W/m² | - |
| 1777809457 | 6.67° C | 98% | 1018.3 hPa | 0 mm | - | 37 W/m² | - |
| 1777809155 | 6.67° C | 98% | 1018.2 hPa | 0 mm | - | 34 W/m² | - |
| 1777808853 | 6.67° C | 98% | 1018.1 hPa | 0 mm | - | 42 W/m² | - |
| 1777808549 | 6.11° C | 98% | 1018.1 hPa | 0 mm | - | 35 W/m² | - |
| 1777808246 | 6.11° C | 98% | 1018 hPa | 0 mm | - | 30 W/m² | - |
| 1777807946 | 6.11° C | 98% | 1018.2 hPa | 0 mm | - | 29 W/m² | - |
| 1777807643 | 6.11° C | 98% | 1017.8 hPa | 0 mm | - | 28 W/m² | - |
| 1777807340 | 6.11° C | 98% | 1018 hPa | 0 mm | - | 26 W/m² | - |
* Rain latest hour (hover to see other rain measurements)
** Current wind speed in m/s (hover to see current wind gust speed)